{"data":{"norad_id":66971,"intl_designator":"2025-288N","name":"STARLINK-35678","alt_names":[],"object_type":"PAYLOAD","status":"ACTIVE","operator":null,"country":"US","launch_date":"2025-12-08","launch_site_code":"AFETR","launch_vehicle":null,"mission":null,"orbit_class":"UNKNOWN","rcs_meters":null,"size_class":null,"mass_kg":null,"dimensions":null,"purposes":["comms"],"wikipedia_slug":null,"has_3d_model":false,"image_url":null,"decayed_at":null,"tle_current":{"epoch":"2026-09-20T07:40:30.501408Z","epoch_age_seconds":96836,"freshness":"FRESH","line1":"1 66971U 25288N   26263.31979747  .00006284  00000+0  23766-3 0  9996","line2":"2 66971  42.9990   4.2739 0000738 283.9542  76.1228 15.27582686 45050","mean_motion":15.27582686,"eccentricity":7.38e-5,"inclination_deg":42.999,"raan_deg":4.2739,"arg_perigee_deg":283.9542,"mean_anomaly_deg":76.1228,"bstar":0.00023766,"rev_number":4505,"period_min":94.266582961258,"perigee_km":482.53469826083,"apogee_km":483.54740814148,"semimajor_km":6861.1780532012,"source":"CELESTRAK","updated_at":"2026-09-21T09:00:36.064450Z"}}}